| time (UTC) | temp F | wind direction | speed knots | gust knots | rain 1hr in | rain 24hr in | rain mn in | humidity % | barometer mb |
| 20260902153332 | 89 | 236 | 3.5 | 5.2 | 0.00 | 0.00 | 0.00 | 56 | 1017.5 |
| 20260902152829 | 90 | 252 | 3.5 | 3.5 | 0.00 | 0.00 | 0.00 | 58 | 1017.6 |
| 20260902152325 | 90 | 233 | 2.6 | 3.5 | 0.00 | 0.00 | 0.00 | 55 | 1017.6 |
| 20260902151820 | 88 | 251 | 0.9 | 1.7 | 0.00 | 0.00 | 0.00 | 58 | 1017.6 |
| 20260902151315 | 87 | 262 | 2.6 | 5.2 | 0.00 | 0.00 | 0.00 | 60 | 1017.6 |
| 20260902150809 | 87 | 277 | 5.2 | 7.0 | 0.00 | 0.00 | 0.00 | 60 | 1017.5 |
| 20260902150306 | 86 | 235 | 4.3 | 5.2 | 0.00 | 0.00 | 0.00 | 62 | 1017.5 |
| 20260902145805 | 86 | 227 | 3.5 | 5.2 | 0.00 | 0.00 | 0.00 | 63 | 1017.4 |
| 20260902145301 | 87 | 252 | 2.6 | 5.2 | 0.00 | 0.00 | 0.00 | 62 | 1017.6 |
| 20260902144756 | 87 | 199 | 1.7 | 1.7 | 0.00 | 0.00 | 0.00 | 63 | 1017.5 |
| 20260902144252 | 86 | 247 | 3.5 | 5.2 | 0.00 | 0.00 | 0.00 | 64 | 1017.6 |
| 20260902143746 | 86 | 234 | 4.3 | 6.1 | 0.00 | 0.00 | 0.00 | 64 | 1017.4 |
| 20260902143241 | 86 | 262 | 2.6 | 3.5 | 0.00 | 0.00 | 0.00 | 64 | 1017.4 |
| 20260902142737 | 85 | 253 | 3.5 | 7.0 | 0.00 | 0.00 | 0.00 | 65 | 1017.5 |
| 20260902142232 | 86 | 254 | 4.3 | 7.0 | 0.00 | 0.00 | 0.00 | 64 | 1017.5 |
| 20260902141727 | 85 | 227 | 3.5 | 3.5 | 0.00 | 0.00 | 0.00 | 66 | 1017.6 |
| 20260902141223 | 85 | 205 | 0.9 | 1.7 | 0.00 | 0.00 | 0.00 | 67 | 1017.5 |
| 20260902140718 | 84 | 232 | 0.9 | 0.9 | 0.00 | 0.00 | 0.00 | 68 | 1017.5 |
| 20260902140213 | 83 | 236 | 0.0 | 0.0 | 0.00 | 0.00 | 0.00 | 69 | 1017.5 |
| 20260902135712 | 83 | 238 | 1.7 | 1.7 | 0.00 | 0.00 | 0.00 | 69 | 1017.3 |
| 20260902135208 | 83 | 121 | 3.5 | 3.5 | 0.00 | 0.00 | 0.00 | 69 | 1017.3 |
| 20260902134707 | 83 | 225 | 1.7 | 2.6 | 0.00 | 0.00 | 0.00 | 69 | 1017.3 |
| 20260902134202 | 83 | 238 | 0.9 | 1.7 | 0.00 | 0.00 | 0.00 | 70 | 1017.2 |
| 20260902133657 | 83 | 248 | 1.7 | 2.6 | 0.00 | 0.00 | 0.00 | 70 | 1017.4 |
| 20260902133156 | 82 | 205 | 0.9 | 1.7 | 0.00 | 0.00 | 0.00 | 71 | 1017.2 |
| 20260902132647 | 82 | 255 | 0.9 | 1.7 | 0.00 | 0.00 | 0.00 | 71 | 1017.2 |
| 20260902132142 | 82 | 234 | 1.7 | 2.6 | 0.00 | 0.00 | 0.00 | 71 | 1017.2 |
| 20260902131638 | 81 | 222 | 0.9 | 0.9 | 0.00 | 0.00 | 0.00 | 72 | 1017.2 |
| 20260902131133 | 81 | 201 | 1.7 | 1.7 | 0.00 | 0.00 | 0.00 | 72 | 1017.2 |
| 20260902130629 | 80 | 219 | 1.7 | 1.7 | 0.00 | 0.00 | 0.00 | 73 | 1017.1 |
| 20260902130124 | 80 | 238 | 0.9 | 0.9 | 0.00 | 0.00 | 0.00 | 75 | 1017.1 |
| 20260902125620 | 79 | 198 | 0.0 | 0.0 | 0.00 | 0.00 | 0.00 | 76 | 1017.0 |
| 20260902125115 | 79 | 221 | 0.0 | 0.0 | 0.00 | 0.00 | 0.00 | 77 | 1016.9 |
| 20260902124612 | 78 | 204 | 0.9 | 0.9 | 0.00 | 0.00 | 0.00 | 78 | 1016.9 |
| 20260902124111 | 78 | 199 | 1.7 | 1.7 | 0.00 | 0.00 | 0.00 | 78 | 1016.8 |
| 20260902123607 | 78 | 203 | 0.0 | 0.0 | 0.00 | 0.00 | 0.00 | 78 | 1017.0 |
| 20260902123102 | 78 | 176 | 0.0 | 0.0 | 0.00 | 0.00 | 0.00 | 78 | 1016.9 |
| 20260902122601 | 78 | 167 | 0.0 | 0.0 | 0.00 | 0.00 | 0.00 | 79 | 1016.7 |
| 20260902122057 | 78 | 82 | 0.0 | 0.0 | 0.00 | 0.00 | 0.00 | 78 | 1016.7 |
| 20260902121557 | 78 | 82 | 0.0 | 0.0 | 0.00 | 0.00 | 0.00 | 78 | 1016.8 |
| 20260902121052 | 79 | 82 | 0.0 | 0.0 | 0.00 | 0.00 | 0.00 | 78 | 1016.6 |
| 20260902120548 | 79 | 80 | 0.0 | 0.0 | 0.00 | 0.00 | 0.00 | 78 | 1016.7 |
| 20260902120044 | 79 | 95 | 0.0 | 0.0 | 0.00 | 0.00 | 0.00 | 77 | 1016.7 |
| 20260902115539 | 78 | 197 | 0.0 | 0.0 | 0.00 | 0.00 | 0.00 | 78 | 1016.8 |
| 20260902115035 | 79 | 202 | 0.0 | 0.0 | 0.00 | 0.00 | 0.00 | 77 | 1016.7 |
| 20260902114530 | 79 | 201 | 0.0 | 0.0 | 0.00 | 0.00 | 0.00 | 77 | 1016.6 |
| 20260902114025 | 79 | 198 | 0.9 | 1.7 | 0.00 | 0.00 | 0.00 | 77 | 1016.6 |
| 20260902113520 | 79 | 223 | 0.0 | 0.0 | 0.00 | 0.00 | 0.00 | 77 | 1016.4 |
| 20260902113016 | 79 | 226 | 0.9 | 1.7 | 0.00 | 0.00 | 0.00 | 77 | 1016.4 |
| 20260902112511 | 79 | 247 | 1.7 | 2.6 | 0.00 | 0.00 | 0.00 | 77 | 1016.3 |
| 20260902112008 | 79 | 229 | 0.9 | 0.9 | 0.00 | 0.00 | 0.00 | 77 | 1016.3 |
| 20260902111503 | 79 | 220 | 0.9 | 1.7 | 0.00 | 0.00 | 0.00 | 77 | 1016.3 |
| 20260902110959 | 79 | 248 | 1.7 | 1.7 | 0.00 | 0.00 | 0.00 | 76 | 1016.4 |
| 20260902110455 | 79 | 224 | 2.6 | 2.6 | 0.00 | 0.00 | 0.00 | 77 | 1016.2 |
| 20260902105950 | 79 | 167 | 2.6 | 3.5 | 0.00 | 0.00 | 0.00 | 77 | 1016.2 |
| 20260902105444 | 79 | 181 | 2.6 | 2.6 | 0.00 | 0.00 | 0.00 | 77 | 1016.2 |
| 20260902104939 | 80 | 206 | 1.7 | 1.7 | 0.00 | 0.00 | 0.00 | 76 | 1016.4 |
| 20260902104435 | 80 | 186 | 1.7 | 1.7 | 0.00 | 0.00 | 0.00 | 76 | 1016.4 |
| 20260902103935 | 80 | 206 | 0.9 | 0.9 | 0.00 | 0.00 | 0.00 | 76 | 1016.3 |
| 20260902103430 | 80 | 193 | 2.6 | 3.5 | 0.00 | 0.00 | 0.00 | 75 | 1016.4 |
| 20260902102925 | 80 | 186 | 0.9 | 1.7 | 0.00 | 0.00 | 0.00 | 75 | 1016.4 |
| 20260902102422 | 80 | 205 | 0.9 | 1.7 | 0.00 | 0.00 | 0.00 | 75 | 1016.5 |
| 20260902101918 | 80 | 196 | 1.7 | 1.7 | 0.00 | 0.00 | 0.00 | 75 | 1016.4 |
| 20260902101412 | 80 | 199 | 1.7 | 1.7 | 0.00 | 0.00 | 0.00 | 75 | 1016.3 |
| 20260902100912 | 80 | 213 | 1.7 | 1.7 | 0.00 | 0.00 | 0.00 | 75 | 1016.2 |
| 20260902100406 | 80 | 224 | 0.9 | 1.7 | 0.00 | 0.00 | 0.00 | 75 | 1016.3 |
| 20260902095900 | 80 | 215 | 1.7 | 2.6 | 0.00 | 0.00 | 0.00 | 75 | 1016.3 |
| 20260902095354 | 80 | 192 | 0.9 | 1.7 | 0.00 | 0.00 | 0.00 | 76 | 1016.5 |
| 20260902094849 | 80 | 201 | 2.6 | 2.6 | 0.00 | 0.00 | 0.00 | 76 | 1016.4 |
| 20260902094345 | 80 | 226 | 2.6 | 2.6 | 0.00 | 0.00 | 0.00 | 76 | 1016.5 |
| 20260902093844 | 80 | 230 | 2.6 | 2.6 | 0.00 | 0.00 | 0.00 | 77 | 1016.4 |
| 20260902093340 | 80 | 222 | 0.0 | 0.0 | 0.00 | 0.00 | 0.00 | 77 | 1016.4 |
| 20260902092838 | 80 | 208 | 0.0 | 0.0 | 0.00 | 0.00 | 0.00 | 78 | 1016.3 |
| 20260902092334 | 80 | 208 | 0.0 | 0.0 | 0.00 | 0.00 | 0.00 | 78 | 1016.5 |
| 20260902091829 | 80 | 199 | 0.9 | 0.9 | 0.00 | 0.00 | 0.00 | 78 | 1016.5 |
| 20260902091325 | 80 | 183 | 0.9 | 0.9 | 0.00 | 0.00 | 0.00 | 78 | 1016.4 |
| 20260902090821 | 80 | 183 | 0.9 | 0.9 | 0.00 | 0.00 | 0.00 | 78 | 1016.4 |
| 20260902090320 | 80 | 205 | 1.7 | 1.7 | 0.00 | 0.00 | 0.00 | 78 | 1016.4 |
| 20260902085820 | 80 | 163 | 2.6 | 2.6 | 0.00 | 0.00 | 0.00 | 78 | 1016.5 |
| 20260902085315 | 80 | 161 | 2.6 | 2.6 | 0.00 | 0.00 | 0.00 | 77 | 1016.5 |
| 20260902084810 | 80 | 150 | 1.7 | 1.7 | 0.00 | 0.00 | 0.00 | 77 | 1016.5 |
| 20260902084307 | 80 | 146 | 1.7 | 1.7 | 0.00 | 0.00 | 0.00 | 77 | 1016.4 |
| 20260902083801 | 80 | 130 | 0.0 | 0.0 | 0.00 | 0.00 | 0.00 | 77 | 1016.4 |
| 20260902083256 | 80 | 173 | 0.0 | 0.0 | 0.00 | 0.00 | 0.00 | 77 | 1016.6 |
| 20260902082751 | 80 | 164 | 0.0 | 0.0 | 0.00 | 0.00 | 0.00 | 77 | 1016.8 |
| 20260902082248 | 80 | 157 | 0.9 | 0.9 | 0.00 | 0.00 | 0.00 | 77 | 1016.7 |
| 20260902081743 | 80 | 121 | 0.9 | 1.7 | 0.00 | 0.00 | 0.00 | 76 | 1016.5 |
| 20260902081239 | 80 | 110 | 2.6 | 2.6 | 0.00 | 0.00 | 0.00 | 76 | 1016.8 |
| 20260902080734 | 80 | 132 | 0.9 | 0.9 | 0.00 | 0.00 | 0.00 | 76 | 1016.8 |
| 20260902080231 | 80 | 87 | 0.0 | 0.9 | 0.00 | 0.00 | 0.00 | 76 | 1016.7 |
| 20260902075730 | 80 | 88 | 1.7 | 1.7 | 0.00 | 0.00 | 0.00 | 75 | 1016.9 |
| 20260902075226 | 80 | 83 | 1.7 | 1.7 | 0.00 | 0.00 | 0.00 | 75 | 1016.8 |
| 20260902074726 | 80 | 86 | 0.0 | 0.0 | 0.00 | 0.00 | 0.00 | 75 | 1016.8 |
| 20260902074222 | 81 | 57 | 1.7 | 1.7 | 0.00 | 0.00 | 0.00 | 74 | 1016.8 |
| 20260902073717 | 81 | 55 | 0.9 | 1.7 | 0.00 | 0.00 | 0.00 | 74 | 1017.0 |
| 20260902073213 | 81 | 98 | 0.9 | 0.9 | 0.00 | 0.00 | 0.00 | 73 | 1016.8 |
| 20260902072709 | 81 | 120 | 0.0 | 0.9 | 0.00 | 0.00 | 0.00 | 73 | 1016.9 |
| 20260902072205 | 81 | 83 | 0.9 | 1.7 | 0.00 | 0.00 | 0.00 | 73 | 1016.9 |
| 20260902071701 | 81 | 95 | 2.6 | 2.6 | 0.00 | 0.00 | 0.00 | 73 | 1016.7 |
| 20260902071155 | 81 | 84 | 0.0 | 0.0 | 0.00 | 0.00 | 0.00 | 73 | 1016.8 |
| 20260902070652 | 81 | 80 | 3.5 | 3.5 | 0.00 | 0.00 | 0.00 | 72 | 1017.0 |
| 20260902070151 | 81 | 68 | 1.7 | 1.7 | 0.00 | 0.00 | 0.00 | 72 | 1017.0 |
| 20260902065650 | 82 | 77 | 0.9 | 0.9 | 0.00 | 0.00 | 0.00 | 72 | 1016.9 |
| 20260902065146 | 82 | 127 | 0.0 | 0.0 | 0.00 | 0.00 | 0.00 | 72 | 1017.1 |
| 20260902064641 | 82 | 52 | 0.9 | 0.9 | 0.00 | 0.00 | 0.00 | 71 | 1017.0 |
| 20260902064137 | 82 | 66 | 1.7 | 1.7 | 0.00 | 0.00 | 0.00 | 71 | 1017.0 |
| 20260902063632 | 82 | 105 | 0.0 | 0.9 | 0.00 | 0.00 | 0.00 | 71 | 1017.0 |
| 20260902063127 | 82 | 43 | 0.9 | 1.7 | 0.00 | 0.00 | 0.00 | 71 | 1017.0 |
| 20260902062626 | 82 | 50 | 1.7 | 2.6 | 0.00 | 0.00 | 0.00 | 71 | 1017.2 |
| 20260902062121 | 82 | 39 | 1.7 | 2.6 | 0.00 | 0.00 | 0.00 | 71 | 1017.0 |
| 20260902061620 | 83 | 80 | 0.9 | 1.7 | 0.00 | 0.00 | 0.00 | 70 | 1016.9 |
| 20260902061116 | 83 | 65 | 0.9 | 0.9 | 0.00 | 0.00 | 0.00 | 70 | 1016.9 |
| 20260902060613 | 83 | 83 | 0.0 | 0.9 | 0.00 | 0.00 | 0.00 | 69 | 1017.0 |
| 20260902060109 | 84 | 81 | 3.5 | 3.5 | 0.00 | 0.00 | 0.00 | 69 | 1017.0 |
| 20260902055604 | 84 | 107 | 1.7 | 1.7 | 0.00 | 0.00 | 0.00 | 69 | 1016.9 |
| 20260902055059 | 84 | 103 | 1.7 | 2.6 | 0.00 | 0.00 | 0.00 | 69 | 1017.1 |
| 20260902054554 | 84 | 85 | 1.7 | 1.7 | 0.00 | 0.00 | 0.00 | 68 | 1017.0 |
| 20260902054050 | 84 | 127 | 1.7 | 2.6 | 0.00 | 0.00 | 0.00 | 68 | 1017.0 |
| 20260902053544 | 84 | 128 | 0.0 | 0.0 | 0.00 | 0.00 | 0.00 | 67 | 1016.8 |
| 20260902053039 | 84 | 92 | 0.9 | 1.7 | 0.00 | 0.00 | 0.00 | 67 | 1016.7 |
| 20260902052533 | 84 | 74 | 3.5 | 5.2 | 0.00 | 0.00 | 0.00 | 67 | 1016.6 |
| 20260902052029 | 85 | 71 | 3.5 | 3.5 | 0.00 | 0.00 | 0.00 | 67 | 1016.7 |
| 20260902051529 | 85 | 126 | 1.7 | 1.7 | 0.00 | 0.00 | 0.00 | 66 | 1016.6 |
| 20260902051028 | 85 | 83 | 2.6 | 2.6 | 0.00 | 0.00 | 0.00 | 66 | 1016.7 |
| 20260902050523 | 86 | 119 | 2.6 | 3.5 | 0.00 | 0.00 | 0.00 | 65 | 1016.9 |
| 20260902050018 | 86 | 120 | 2.6 | 5.2 | 0.00 | 0.00 | 0.00 | 65 | 1016.7 |
| 20260902045513 | 86 | 164 | 3.5 | 5.2 | 0.00 | 0.00 | 0.00 | 64 | 1016.6 |
| 20260902045010 | 86 | 131 | 7.0 | 7.8 | 0.00 | 0.00 | 0.00 | 64 | 1016.8 |
| 20260902044504 | 86 | 107 | 3.5 | 3.5 | 0.00 | 0.00 | 0.00 | 64 | 1016.7 |
| 20260902044000 | 86 | 139 | 3.5 | 3.5 | 0.00 | 0.00 | 0.00 | 63 | 1016.8 |
| 20260902043455 | 87 | 125 | 3.5 | 3.5 | 0.00 | 0.00 | 0.00 | 63 | 1017.0 |
| 20260902042950 | 87 | 99 | 5.2 | 6.1 | 0.00 | 0.00 | 0.00 | 63 | 1017.0 |
| 20260902042449 | 87 | 99 | 0.9 | 1.7 | 0.00 | 0.00 | 0.00 | 62 | 1017.0 |
| 20260902041944 | 87 | 88 | 3.5 | 5.2 | 0.00 | 0.00 | 0.00 | 61 | 1016.9 |
| 20260902041438 | 87 | 123 | 1.7 | 2.6 | 0.00 | 0.00 | 0.00 | 62 | 1016.7 |
| 20260902040938 | 87 | 122 | 4.3 | 5.2 | 0.00 | 0.00 | 0.00 | 61 | 1016.6 |
| 20260902040428 | 87 | 113 | 2.6 | 3.5 | 0.00 | 0.00 | 0.00 | 61 | 1016.7 |
| 20260902035926 | 88 | 141 | 4.3 | 6.1 | 0.00 | 0.00 | 0.00 | 60 | 1016.6 |
| 20260902035421 | 88 | 89 | 3.5 | 5.2 | 0.00 | 0.00 | 0.00 | 60 | 1016.7 |
| 20260902034920 | 88 | 132 | 1.7 | 2.6 | 0.00 | 0.00 | 0.00 | 60 | 1016.6 |
| 20260902034415 | 88 | 143 | 3.5 | 3.5 | 0.00 | 0.00 | 0.00 | 60 | 1016.5 |
| 20260902033915 | 88 | 169 | 2.6 | 3.5 | 0.00 | 0.00 | 0.00 | 60 | 1016.5 |
| 20260902033409 | 88 | 129 | 1.7 | 1.7 | 0.00 | 0.00 | 0.00 | 59 | 1016.2 |
| 20260902032908 | 89 | 123 | 1.7 | 1.7 | 0.00 | 0.00 | 0.00 | 59 | 1016.4 |
| 20260902032403 | 88 | 163 | 1.7 | 1.7 | 0.00 | 0.00 | 0.00 | 59 | 1016.3 |
| 20260902031903 | 89 | 136 | 1.7 | 1.7 | 0.00 | 0.00 | 0.00 | 59 | 1016.2 |
| 20260902031359 | 89 | 144 | 3.5 | 3.5 | 0.00 | 0.00 | 0.00 | 58 | 1016.3 |
| 20260902030854 | 89 | 170 | 3.5 | 3.5 | 0.00 | 0.00 | 0.00 | 58 | 1016.3 |
| 20260902030348 | 89 | 123 | 2.6 | 2.6 | 0.00 | 0.00 | 0.00 | 58 | 1016.2 |
| 20260902025847 | 89 | 103 | 1.7 | 1.7 | 0.00 | 0.00 | 0.00 | 57 | 1016.1 |
| 20260902025343 | 89 | 123 | 3.5 | 6.1 | 0.00 | 0.00 | 0.00 | 57 | 1015.8 |
| 20260902024838 | 89 | 101 | 2.6 | 2.6 | 0.00 | 0.00 | 0.00 | 57 | 1015.4 |
| 20260902024334 | 89 | 103 | 3.5 | 3.5 | 0.00 | 0.00 | 0.00 | 56 | 1015.4 |
| 20260902023829 | 89 | 90 | 3.5 | 3.5 | 0.00 | 0.00 | 0.00 | 56 | 1015.6 |
| 20260902023324 | 89 | 124 | 1.7 | 2.6 | 0.00 | 0.00 | 0.00 | 56 | 1015.4 |
| 20260902022823 | 90 | 116 | 5.2 | 6.1 | 0.00 | 0.00 | 0.00 | 55 | 1015.4 |
| 20260902022318 | 90 | 116 | 4.3 | 6.1 | 0.00 | 0.00 | 0.00 | 55 | 1015.4 |
| 20260902021814 | 90 | 132 | 3.5 | 5.2 | 0.00 | 0.00 | 0.00 | 54 | 1015.3 |
| 20260902021309 | 90 | 71 | 3.5 | 5.2 | 0.00 | 0.00 | 0.00 | 54 | 1015.1 |
| 20260902020805 | 90 | 101 | 4.3 | 7.8 | 0.00 | 0.00 | 0.00 | 53 | 1015.3 |
| 20260902020301 | 90 | 95 | 2.6 | 2.6 | 0.00 | 0.00 | 0.00 | 53 | 1015.2 |
| 20260902015756 | 90 | 75 | 2.6 | 3.5 | 0.00 | 0.00 | 0.00 | 53 | 1014.9 |
| 20260902015253 | 91 | 77 | 3.5 | 3.5 | 0.00 | 0.00 | 0.00 | 52 | 1014.9 |
| 20260902014748 | 91 | 122 | 1.7 | 2.6 | 0.00 | 0.00 | 0.00 | 52 | 1014.9 |
| 20260902014244 | 91 | 61 | 3.5 | 3.5 | 0.00 | 0.00 | 0.00 | 52 | 1014.7 |
| 20260902013743 | 91 | 48 | 4.3 | 5.2 | 0.00 | 0.00 | 0.00 | 51 | 1014.6 |
| 20260902013238 | 91 | 17 | 1.7 | 3.5 | 0.00 | 0.00 | 0.00 | 51 | 1014.6 |
| 20260902012733 | 92 | 75 | 6.1 | 7.8 | 0.00 | 0.00 | 0.00 | 50 | 1014.6 |
| 20260902012230 | 92 | 97 | 3.5 | 5.2 | 0.00 | 0.00 | 0.00 | 49 | 1014.5 |
| 20260902011724 | 92 | 82 | 4.3 | 7.0 | 0.00 | 0.00 | 0.00 | 49 | 1014.6 |
| 20260902011223 | 92 | 89 | 3.5 | 5.2 | 0.00 | 0.00 | 0.00 | 48 | 1014.5 |
| 20260902010718 | 93 | 97 | 1.7 | 2.6 | 0.00 | 0.00 | 0.00 | 46 | 1014.6 |
| 20260902010214 | 93 | 135 | 0.9 | 0.9 | 0.00 | 0.00 | 0.00 | 46 | 1014.5 |
| 20260902005712 | 93 | 92 | 3.5 | 6.1 | 0.00 | 0.00 | 0.00 | 45 | 1014.4 |
| 20260902005208 | 93 | 91 | 2.6 | 3.5 | 0.00 | 0.00 | 0.00 | 45 | 1014.4 |
| 20260902004708 | 94 | 41 | 2.6 | 3.5 | 0.00 | 0.00 | 0.00 | 45 | 1014.5 |
| 20260902004202 | 94 | 68 | 0.9 | 1.7 | 0.00 | 0.00 | 0.00 | 45 | 1014.5 |
| 20260902003652 | 94 | 98 | 4.3 | 5.2 | 0.00 | 0.00 | 0.00 | 45 | 1014.6 |
| 20260902003147 | 95 | 84 | 5.2 | 7.0 | 0.00 | 0.00 | 0.00 | 45 | 1014.7 |
| 20260902002643 | 95 | 61 | 3.5 | 5.2 | 0.00 | 0.00 | 0.00 | 45 | 1014.6 |
| 20260902002142 | 95 | 64 | 1.7 | 2.6 | 0.00 | 0.00 | 0.00 | 45 | 1014.7 |
| 20260902001638 | 95 | 66 | 1.7 | 3.5 | 0.00 | 0.00 | 0.00 | 45 | 1014.4 |
| 20260902001132 | 95 | 41 | 2.6 | 2.6 | 0.00 | 0.00 | 0.00 | 45 | 1014.6 |
| 20260902000627 | 95 | 76 | 5.2 | 8.7 | 0.00 | 0.00 | 0.00 | 44 | 1014.6 |
| 20260902000122 | 96 | 46 | 6.1 | 7.8 | 0.00 | 0.00 | 0.00 | 44 | 1014.4 |
| 20260901235622 | 96 | 51 | 4.3 | 7.8 | 0.00 | 0.00 | 0.00 | 43 | 1014.5 |
| 20260901235118 | 96 | 94 | 4.3 | 6.1 | 0.00 | 0.00 | 0.00 | 40 | 1014.5 |
| 20260901234616 | 96 | 92 | 1.7 | 2.6 | 0.00 | 0.00 | 0.00 | 40 | 1014.4 |
| 20260901234112 | 96 | 65 | 1.7 | 3.5 | 0.00 | 0.00 | 0.00 | 41 | 1014.3 |
| 20260901233607 | 96 | 36 | 7.0 | 8.7 | 0.00 | 0.00 | 0.00 | 41 | 1014.4 |
| 20260901233103 | 96 | 57 | 3.5 | 6.1 | 0.00 | 0.00 | 0.00 | 41 | 1014.4 |
| 20260901232557 | 96 | 42 | 2.6 | 3.5 | 0.00 | 0.00 | 0.00 | 41 | 1014.5 |
| 20260901232058 | 97 | 70 | 3.5 | 6.1 | 0.00 | 0.00 | 0.00 | 41 | 1014.3 |
| 20260901231554 | 97 | 103 | 2.6 | 3.5 | 0.00 | 0.00 | 0.00 | 43 | 1014.4 |
| 20260901231050 | 97 | 62 | 2.6 | 3.5 | 0.00 | 0.00 | 0.00 | 43 | 1014.4 |
| 20260901230546 | 97 | 35 | 3.5 | 3.5 | 0.00 | 0.00 | 0.00 | 43 | 1014.5 |
| 20260901230040 | 97 | 35 | 1.7 | 2.6 | 0.00 | 0.00 | 0.00 | 43 | 1014.6 |
| 20260901225535 | 98 | 52 | 6.1 | 7.8 | 0.00 | 0.00 | 0.00 | 42 | 1014.6 |
| 20260901225035 | 98 | 17 | 3.5 | 5.2 | 0.00 | 0.00 | 0.00 | 42 | 1014.6 |
| 20260901224531 | 97 | 34 | 4.3 | 7.0 | 0.00 | 0.00 | 0.00 | 42 | 1014.5 |
| 20260901224027 | 97 | 62 | 2.6 | 5.2 | 0.00 | 0.00 | 0.00 | 43 | 1014.5 |
| 20260901223522 | 97 | 139 | 2.6 | 5.2 | 0.00 | 0.00 | 0.00 | 43 | 1014.4 |
| 20260901223018 | 97 | 50 | 5.2 | 6.1 | 0.00 | 0.00 | 0.00 | 43 | 1014.6 |
| 20260901222514 | 97 | 81 | 6.1 | 6.1 | 0.00 | 0.00 | 0.00 | 43 | 1014.5 |
| 20260901222009 | 97 | 98 | 5.2 | 7.0 | 0.00 | 0.00 | 0.00 | 43 | 1014.4 |
| 20260901221505 | 97 | 63 | 6.1 | 7.0 | 0.00 | 0.00 | 0.00 | 43 | 1014.6 |
| 20260901221001 | 98 | 81 | 5.2 | 7.0 | 0.00 | 0.00 | 0.00 | 42 | 1014.5 |
| 20260901220500 | 97 | 27 | 4.3 | 6.1 | 0.00 | 0.00 | 0.00 | 42 | 1014.8 |
| 20260901215958 | 97 | 19 | 2.6 | 2.6 | 0.00 | 0.00 | 0.00 | 43 | 1014.7 |
| 20260901215457 | 97 | 52 | 0.0 | 0.9 | 0.00 | 0.00 | 0.00 | 44 | 1014.7 |
| 20260901214956 | 98 | 65 | 4.3 | 6.1 | 0.00 | 0.00 | 0.00 | 42 | 1014.6 |
| 20260901214455 | 97 | 142 | 3.5 | 6.1 | 0.00 | 0.00 | 0.00 | 42 | 1014.5 |
| 20260901213950 | 96 | 143 | 3.5 | 5.2 | 0.00 | 0.00 | 0.00 | 42 | 1014.8 |
| 20260901213444 | 95 | 143 | 0.0 | 1.7 | 0.00 | 0.00 | 0.00 | 44 | 1014.8 |
| 20260901212943 | 95 | 102 | 3.5 | 5.2 | 0.00 | 0.00 | 0.00 | 44 | 1014.7 |
| 20260901212439 | 96 | 69 | 1.7 | 2.6 | 0.00 | 0.00 | 0.00 | 45 | 1014.9 |
| 20260901211936 | 97 | 13 | 2.6 | 3.5 | 0.00 | 0.00 | 0.00 | 44 | 1014.7 |
| 20260901211431 | 98 | 273 | 0.0 | 0.0 | 0.00 | 0.00 | 0.00 | 44 | 1015.1 |
| 20260901210927 | 96 | 94 | 4.3 | 7.0 | 0.00 | 0.00 | 0.00 | 44 | 1014.9 |
| 20260901210423 | 98 | 63 | 0.9 | 1.7 | 0.00 | 0.00 | 0.00 | 45 | 1014.9 |
| 20260901205919 | 97 | 256 | 0.0 | 0.0 | 0.00 | 0.00 | 0.00 | 44 | 1015.0 |
| 20260901205413 | 96 | 98 | 5.2 | 6.1 | 0.00 | 0.00 | 0.00 | 46 | 1015.3 |
| 20260901204908 | 96 | 47 | 0.0 | 0.0 | 0.00 | 0.00 | 0.00 | 45 | 1015.3 |
| 20260901204405 | 95 | 62 | 3.5 | 5.2 | 0.00 | 0.00 | 0.00 | 47 | 1015.4 |
| 20260901203904 | 95 | 38 | 1.7 | 3.5 | 0.00 | 0.00 | 0.00 | 47 | 1015.4 |
| 20260901203358 | 96 | 7 | 6.1 | 7.0 | 0.00 | 0.00 | 0.00 | 45 | 1015.7 |
| 20260901202853 | 96 | 82 | 5.2 | 7.8 | 0.00 | 0.00 | 0.00 | 45 | 1015.4 |
| 20260901202348 | 95 | 14 | 0.0 | 0.0 | 0.00 | 0.00 | 0.00 | 46 | 1015.5 |
| 20260901201845 | 97 | 30 | 0.0 | 0.0 | 0.00 | 0.00 | 0.00 | 44 | 1015.7 |
| 20260901201344 | 96 | 68 | 0.0 | 0.0 | 0.00 | 0.00 | 0.00 | 45 | 1015.7 |
| 20260901200838 | 96 | 89 | 2.6 | 2.6 | 0.00 | 0.00 | 0.00 | 44 | 1015.9 |
| 20260901200333 | 98 | 47 | 6.1 | 8.7 | 0.00 | 0.00 | 0.00 | 43 | 1015.8 |
| 20260901195832 | 95 | 330 | 0.0 | 0.0 | 0.00 | 0.00 | 0.00 | 46 | 1015.9 |
| 20260901195330 | 95 | 121 | 3.5 | 5.2 | 0.00 | 0.00 | 0.00 | 47 | 1016.1 |
| 20260901194826 | 95 | 72 | 4.3 | 7.0 | 0.00 | 0.00 | 0.00 | 47 | 1016.2 |
| 20260901194321 | 94 | 176 | 1.7 | 1.7 | 0.00 | 0.00 | 0.00 | 47 | 1016.2 |
| 20260901193818 | 95 | 97 | 1.7 | 2.6 | 0.00 | 0.00 | 0.00 | 47 | 1016.0 |
| 20260901193316 | 96 | 98 | 1.7 | 2.6 | 0.00 | 0.00 | 0.00 | 47 | 1016.4 |
| 20260901192811 | 95 | 58 | 0.9 | 0.9 | 0.00 | 0.00 | 0.00 | 47 | 1016.5 |
| 20260901192306 | 95 | 82 | 5.2 | 6.1 | 0.00 | 0.00 | 0.00 | 46 | 1016.5 |
| 20260901191803 | 95 | 80 | 7.0 | 8.7 | 0.00 | 0.00 | 0.00 | 47 | 1016.5 |
| 20260901191258 | 95 | 113 | 3.5 | 5.2 | 0.00 | 0.00 | 0.00 | 48 | 1016.5 |
| 20260901190754 | 95 | 17 | 1.7 | 2.6 | 0.00 | 0.00 | 0.00 | 47 | 1016.5 |
| 20260901190253 | 96 | 89 | 1.7 | 2.6 | 0.00 | 0.00 | 0.00 | 48 | 1016.7 |
| 20260901185752 | 96 | 87 | 4.3 | 7.0 | 0.00 | 0.00 | 0.00 | 48 | 1016.7 |
| 20260901185251 | 94 | 318 | 0.9 | 1.7 | 0.00 | 0.00 | 0.00 | 48 | 1016.7 |
| 20260901184747 | 94 | 76 | 1.7 | 2.6 | 0.00 | 0.00 | 0.00 | 49 | 1016.8 |
| 20260901184242 | 95 | 78 | 1.7 | 2.6 | 0.00 | 0.00 | 0.00 | 49 | 1017.0 |
| 20260901183738 | 93 | 161 | 4.3 | 6.1 | 0.00 | 0.00 | 0.00 | 49 | 1017.1 |
| 20260901183237 | 94 | 89 | 0.9 | 1.7 | 0.00 | 0.00 | 0.00 | 49 | 1017.2 |
| 20260901182733 | 93 | 145 | 2.6 | 3.5 | 0.00 | 0.00 | 0.00 | 48 | 1017.0 |
| 20260901182232 | 93 | 20 | 0.9 | 1.7 | 0.00 | 0.00 | 0.00 | 51 | 1017.4 |
| 20260901181727 | 93 | 36 | 2.6 | 2.6 | 0.00 | 0.00 | 0.00 | 51 | 1017.4 |
| 20260901181222 | 93 | 91 | 2.6 | 2.6 | 0.00 | 0.00 | 0.00 | 52 | 1017.6 |
| 20260901180721 | 93 | 204 | 0.9 | 1.7 | 0.00 | 0.00 | 0.00 | 51 | 1017.6 |
| 20260901180220 | 92 | 64 | 0.0 | 0.9 | 0.00 | 0.00 | 0.00 | 52 | 1017.7 |
| 20260901175719 | 94 | 69 | 7.8 | 9.6 | 0.00 | 0.00 | 0.00 | 51 | 1017.7 |
| 20260901175215 | 93 | 120 | 1.7 | 1.7 | 0.00 | 0.00 | 0.00 | 53 | 1017.8 |
| 20260901174710 | 93 | 129 | 4.3 | 6.1 | 0.00 | 0.00 | 0.00 | 51 | 1017.9 |
| 20260901174206 | 92 | 4 | 1.7 | 2.6 | 0.00 | 0.00 | 0.00 | 52 | 1018.2 |
| 20260901173701 | 92 | 123 | 1.7 | 1.7 | 0.00 | 0.00 | 0.00 | 53 | 1017.8 |
| 20260901173156 | 92 | 314 | 0.9 | 0.9 | 0.00 | 0.00 | 0.00 | 52 | 1018.1 |
| 20260901172652 | 91 | 91 | 0.9 | 0.9 | 0.00 | 0.00 | 0.00 | 53 | 1018.2 |
| 20260901172149 | 91 | 80 | 3.5 | 6.1 | 0.00 | 0.00 | 0.00 | 53 | 1018.4 |
| 20260901171643 | 92 | 64 | 3.5 | 7.8 | 0.00 | 0.00 | 0.00 | 55 | 1018.4 |
| 20260901171137 | 92 | 42 | 1.7 | 2.6 | 0.00 | 0.00 | 0.00 | 53 | 1018.3 |
| 20260901170637 | 92 | 170 | 1.7 | 2.6 | 0.00 | 0.00 | 0.00 | 54 | 1018.5 |
| 20260901170132 | 92 | 7 | 0.0 | 0.0 | 0.00 | 0.00 | 0.00 | 55 | 1018.4 |
| 20260901165631 | 90 | 28 | 1.7 | 2.6 | 0.00 | 0.00 | 0.00 | 57 | 1018.7 |
| 20260901165126 | 90 | 90 | 1.7 | 2.6 | 0.00 | 0.00 | 0.00 | 58 | 1018.8 |
| 20260901164622 | 92 | 79 | 2.6 | 2.6 | 0.00 | 0.00 | 0.00 | 55 | 1018.7 |
| 20260901164117 | 91 | 58 | 2.6 | 2.6 | 0.00 | 0.00 | 0.00 | 56 | 1018.8 |
| 20260901163613 | 90 | 129 | 2.6 | 3.5 | 0.00 | 0.00 | 0.00 | 57 | 1018.7 |
| 20260901163111 | 91 | 29 | 1.7 | 2.6 | 0.00 | 0.00 | 0.00 | 56 | 1018.5 |
| 20260901162606 | 89 | 65 | 4.3 | 6.1 | 0.00 | 0.00 | 0.00 | 58 | 1018.8 |
| 20260901162100 | 90 | 106 | 2.6 | 3.5 | 0.00 | 0.00 | 0.00 | 58 | 1018.9 |
| 20260901161559 | 89 | 268 | 0.0 | 0.0 | 0.00 | 0.00 | 0.00 | 59 | 1018.9 |
| 20260901161059 | 90 | 86 | 5.2 | 6.1 | 0.00 | 0.00 | 0.00 | 60 | 1018.7 |
| 20260901160555 | 90 | 213 | 0.9 | 1.7 | 0.00 | 0.00 | 0.00 | 60 | 1018.8 |
| 20260901160050 | 89 | 250 | 0.9 | 0.9 | 0.00 | 0.00 | 0.00 | 62 | 1018.9 |
| 20260901155549 | 89 | 356 | 1.7 | 2.6 | 0.00 | 0.00 | 0.00 | 63 | 1018.9 |
| 20260901155044 | 89 | 68 | 1.7 | 2.6 | 0.00 | 0.00 | 0.00 | 65 | 1018.9 |
| 20260901154539 | 88 | 243 | 0.9 | 0.9 | 0.00 | 0.00 | 0.00 | 64 | 1019.0 |
| 20260901154034 | 87 | 184 | 0.0 | 0.0 | 0.00 | 0.00 | 0.00 | 67 | 1018.9 |